Regional Weather Roundup
Issued by NWS

Home | Current Version | Previous Version | Text Only | Print | Product List | Glossary Off
Versions: 1 2 3 4 5 6 7 8 9 10 11 12 13 14 15 16 17 18 19 20 21 22 23 24 25 26 27 28 29 30 31 32 33 34 35 36 37 38 39 40 41 42 43 44 45 46 47 48 49 50

000
ASUS44 KMEG 210300
RWRTN
TENNESSEE HOURLY STATE WEATHER ROUNDUP
NATIONAL WEATHER SERVICE MEMPHIS TN
1000 PM CDT MON APR 20 2015

TNZ002-004-019-021-049-052-054-088>092-210400-
WEST TENNESSEE

CITY           SKY/WX    TMP DP  RH WIND       PRES   REMARKS
MEMPHIS INTL   PTCLDY    57  42  57 W6        29.93R
NWS MEMPHIS      N/A     52 N/A N/A MISG        N/A
JACKSON        CLEAR     50  40  68 SW6       29.91R
DYERSBURG      CLEAR     55  34  44 NW8       29.92R
UNION CITY     PTCLDY    54  32  43 W7        29.89R
PARIS            N/A     50  39  66 W7        29.88R
LEXINGTON      PTCLDY    46  45  93 CALM      29.89R
SAVANNAH       CLEAR     46  32  57 CALM      29.92R
$$

TNZ008-025-027-028-033-062-065-066-210400-
NORTH MIDDLE TENNESSEE

CITY           SKY/WX    TMP DP  RH WIND       PRES   REMARKS
NASHVILLE      CLEAR     51  42  71 S5        29.88R
CLARKSVILLE    MOCLDY    54  41  61 SW5       29.86R
COOKEVILLE     CLEAR     48  46  93 SW3       29.87R
CROSSVILLE     PTCLDY    49  42  77 SW3       29.88R
$$

TNZ061-075-076-078-094-096-097-210400-
SOUTH MIDDLE TENNESSEE

CITY           SKY/WX    TMP DP  RH WIND       PRES   REMARKS
FAYETTEVILLE   CLEAR     54  41  62 CALM      29.91R
TULLAHOMA      CLEAR     48  41  76 W3        29.91R
WINCHESTER     CLEAR     54  43  66 W3        29.91R
MCMINNVILLE    CLEAR     50  45  81 SW3       29.89R
COLUMBIA       CLEAR     52  32  46 SW6       29.89R
SHELBYVILLE    CLEAR     54  45  71 SW5       29.91R
$$

TNZ017-018-042-046-047-210400-
NORTHEAST TENNESSEE

CITY           SKY/WX    TMP DP  RH WIND       PRES   REMARKS
TRI CITIES     LGT RAIN  53  47  79 W21G30    29.80R
ELIZABETHTON   LGT RAIN  54  48  82 W12       29.79R FOG
$$

TNZ012-013-036-069-073-074-210400-
CENTRAL EAST TENNESSEE

CITY           SKY/WX    TMP DP  RH WIND       PRES   REMARKS
KNOXVILLE      MOCLDY    55  47  74 W7        29.85R
OAK RIDGE      CLEAR     56  43  61 W7        29.87R
GATLINBURG     CLOUDY    55  43  62 W10       29.85R
$$

TNZ083-085-099-210400-
SOUTHEAST TENNESSEE

CITY           SKY/WX    TMP DP  RH WIND       PRES   REMARKS
CHATTANOOGA    PTCLDY    59  44  57 W6        29.89R
$$

SKY/WX REPORTED AS FAIR MEANS FEW OR NO CLOUDS BELOW
12 THOUSAND FEET.




USA.gov is the U.S. government's official web portal to all federal, state and local government web resources and services.